| time (UTC) | temp F | wind direction | speed MPH | gust MPH | rain 1hr in | rain 24hr in | rain mn in | humidity % | barometer mb |
| 20260504045516 | 51 | 0 | 4.0 | 9.0 | 0.00 | 0.00 | 0.00 | 60 | 1009.0 |
| 20260504045016 | 52 | 0 | 3.0 | 8.0 | 0.00 | 0.00 | 0.00 | 59 | 1008.9 |
| 20260504044516 | 52 | 0 | 3.0 | 6.0 | 0.00 | 0.00 | 0.00 | 59 | 1008.9 |
| 20260504044016 | 52 | 0 | 5.0 | 11.0 | 0.00 | 0.00 | 0.00 | 59 | 1008.8 |
| 20260504043516 | 52 | 0 | 5.0 | 11.0 | 0.00 | 0.00 | 0.00 | 59 | 1008.9 |
| 20260504043036 | 52 | 0 | 5.0 | 11.0 | 0.00 | 0.00 | 0.00 | 58 | 1008.9 |
| 20260504042516 | 52 | 0 | 3.0 | 8.0 | 0.00 | 0.00 | 0.00 | 58 | 1008.9 |
| 20260504042016 | 52 | 0 | 3.0 | 8.0 | 0.00 | 0.00 | 0.00 | 58 | 1008.9 |
| 20260504041516 | 53 | 0 | 3.0 | 9.0 | 0.00 | 0.00 | 0.00 | 57 | 1009.1 |
| 20260504041016 | 53 | 0 | 3.0 | 5.0 | 0.00 | 0.00 | 0.00 | 57 | 1009.0 |
| 20260504040516 | 53 | 0 | 3.0 | 8.0 | 0.00 | 0.00 | 0.00 | 57 | 1009.1 |
| 20260504040036 | 53 | 0 | 3.0 | 8.0 | 0.00 | 0.00 | 0.00 | 56 | 1009.0 |
| 20260504035517 | 54 | 0 | 3.0 | 6.0 | 0.00 | 0.00 | 0.00 | 56 | 1009.0 |
| 20260504035017 | 54 | 0 | 4.0 | 10.0 | 0.00 | 0.00 | 0.00 | 55 | 1009.0 |
| 20260504034518 | 54 | 0 | 3.0 | 6.0 | 0.00 | 0.00 | 0.00 | 55 | 1008.9 |
| 20260504034015 | 54 | 0 | 4.0 | 9.0 | 0.00 | 0.00 | 0.00 | 55 | 1009.0 |
| 20260504033517 | 54 | 0 | 4.0 | 10.0 | 0.00 | 0.00 | 0.00 | 55 | 1008.9 |
| 20260504033017 | 54 | 0 | 3.0 | 5.0 | 0.00 | 0.00 | 0.00 | 55 | 1008.9 |
| 20260504032518 | 54 | 0 | 3.0 | 6.0 | 0.00 | 0.00 | 0.00 | 55 | 1008.9 |
| 20260504032057 | 54 | 0 | 2.0 | 8.0 | 0.00 | 0.00 | 0.00 | 55 | 1008.9 |
| 20260504031517 | 54 | 0 | 4.0 | 9.0 | 0.00 | 0.00 | 0.00 | 54 | 1008.9 |
| 20260504031018 | 54 | 0 | 3.0 | 8.0 | 0.00 | 0.00 | 0.00 | 54 | 1008.8 |
| 20260504030517 | 54 | 0 | 4.0 | 9.0 | 0.00 | 0.00 | 0.00 | 54 | 1008.9 |
| 20260504030017 | 54 | 0 | 5.0 | 11.0 | 0.00 | 0.00 | 0.00 | 54 | 1008.9 |
| 20260504025538 | 54 | 0 | 7.0 | 13.0 | 0.00 | 0.00 | 0.00 | 54 | 1008.9 |
| 20260504025017 | 54 | 0 | 3.0 | 10.0 | 0.00 | 0.00 | 0.00 | 55 | 1008.9 |
| 20260504024537 | 54 | 0 | 3.0 | 8.0 | 0.00 | 0.00 | 0.00 | 55 | 1009.0 |
| 20260504024037 | 54 | 0 | 3.0 | 9.0 | 0.00 | 0.00 | 0.00 | 55 | 1009.0 |
| 20260504023517 | 54 | 0 | 3.0 | 8.0 | 0.00 | 0.00 | 0.00 | 54 | 1009.0 |
| 20260504023017 | 54 | 0 | 3.0 | 8.0 | 0.00 | 0.00 | 0.00 | 55 | 1009.1 |
| 20260504022517 | 54 | 0 | 2.0 | 7.0 | 0.00 | 0.00 | 0.00 | 54 | 1009.2 |
| 20260504022017 | 54 | 0 | 3.0 | 10.0 | 0.00 | 0.00 | 0.00 | 55 | 1009.2 |
| 20260504021517 | 54 | 0 | 4.0 | 10.0 | 0.00 | 0.00 | 0.00 | 55 | 1009.1 |
| 20260504021017 | 54 | 0 | 6.0 | 15.0 | 0.00 | 0.00 | 0.00 | 55 | 1009.2 |
| 20260504020517 | 54 | 0 | 4.0 | 11.0 | 0.00 | 0.00 | 0.00 | 56 | 1009.3 |
| 20260504020017 | 54 | 0 | 3.0 | 9.0 | 0.00 | 0.00 | 0.00 | 56 | 1009.3 |
| 20260504015517 | 54 | 0 | 3.0 | 6.0 | 0.00 | 0.00 | 0.00 | 57 | 1009.3 |
| 20260504015017 | 54 | 0 | 4.0 | 8.0 | 0.00 | 0.00 | 0.00 | 57 | 1009.2 |
| 20260504014517 | 54 | 0 | 3.0 | 9.0 | 0.00 | 0.00 | 0.00 | 57 | 1009.1 |
| 20260504014017 | 54 | 0 | 4.0 | 10.0 | 0.00 | 0.00 | 0.00 | 58 | 1009.1 |
| 20260504013517 | 54 | 0 | 3.0 | 6.0 | 0.00 | 0.00 | 0.00 | 58 | 1009.2 |
| 20260504013017 | 54 | 0 | 4.0 | 8.0 | 0.00 | 0.00 | 0.00 | 58 | 1009.2 |
| 20260504012538 | 54 | 0 | 4.0 | 11.0 | 0.00 | 0.00 | 0.00 | 58 | 1009.2 |
| 20260504012037 | 54 | 0 | 5.0 | 13.0 | 0.00 | 0.00 | 0.00 | 58 | 1009.5 |
| 20260504011517 | 54 | 0 | 4.0 | 10.0 | 0.00 | 0.00 | 0.00 | 58 | 1009.6 |
| 20260504011017 | 54 | 0 | 6.0 | 15.0 | 0.00 | 0.00 | 0.00 | 58 | 1009.6 |
| 20260504010517 | 54 | 0 | 5.0 | 12.0 | 0.00 | 0.00 | 0.00 | 58 | 1009.5 |
| 20260504010017 | 54 | 0 | 6.0 | 12.0 | 0.00 | 0.00 | 0.00 | 59 | 1009.4 |
| 20260504005517 | 53 | 0 | 5.0 | 14.0 | 0.00 | 0.00 | 0.00 | 59 | 1009.4 |
| 20260504005017 | 53 | 0 | 4.0 | 11.0 | 0.00 | 0.00 | 0.00 | 59 | 1009.5 |
| 20260504004517 | 53 | 0 | 5.0 | 15.0 | 0.00 | 0.00 | 0.00 | 60 | 1009.4 |
| 20260504004017 | 53 | 0 | 4.0 | 11.0 | 0.00 | 0.00 | 0.00 | 60 | 1009.5 |
| 20260504003537 | 53 | 0 | 4.0 | 11.0 | 0.00 | 0.00 | 0.00 | 60 | 1009.6 |
| 20260504003017 | 53 | 0 | 5.0 | 14.0 | 0.00 | 0.00 | 0.00 | 60 | 1009.7 |
| 20260504002517 | 54 | 0 | 4.0 | 12.0 | 0.00 | 0.00 | 0.00 | 60 | 1009.8 |
| 20260504002017 | 54 | 0 | 5.0 | 25.0 | 0.00 | 0.00 | 0.00 | 60 | 1009.8 |
| 20260504001517 | 54 | 0 | 5.0 | 13.0 | 0.00 | 0.00 | 0.00 | 59 | 1009.7 |
| 20260504001017 | 54 | 0 | 4.0 | 9.0 | 0.00 | 0.00 | 0.00 | 59 | 1009.6 |
| 20260504000517 | 54 | 0 | 3.0 | 8.0 | 0.00 | 0.00 | 0.00 | 59 | 1009.7 |
| 20260504000017 | 54 | 0 | 5.0 | 11.0 | 0.00 | 0.00 | 0.00 | 58 | 1009.7 |
| 20260503235517 | 54 | 0 | 3.0 | 11.0 | 0.00 | 0.00 | 0.00 | 58 | 1009.6 |
| 20260503235037 | 54 | 0 | 4.0 | 9.0 | 0.00 | 0.00 | 0.00 | 57 | 1009.6 |
| 20260503234517 | 55 | 0 | 4.0 | 11.0 | 0.00 | 0.00 | 0.00 | 57 | 1009.3 |
| 20260503234037 | 55 | 0 | 4.0 | 10.0 | 0.00 | 0.00 | 0.00 | 56 | 1009.6 |
| 20260503233517 | 55 | 0 | 7.0 | 18.0 | 0.00 | 0.00 | 0.00 | 55 | 1009.5 |
| 20260503233017 | 55 | 0 | 9.0 | 20.0 | 0.00 | 0.00 | 0.00 | 55 | 1009.2 |
| 20260503232517 | 55 | 0 | 10.0 | 22.0 | 0.00 | 0.00 | 0.00 | 55 | 1009.5 |
| 20260503232017 | 56 | 0 | 7.0 | 17.0 | 0.00 | 0.00 | 0.00 | 54 | 1009.4 |
| 20260503231517 | 56 | 0 | 7.0 | 18.0 | 0.00 | 0.00 | 0.00 | 53 | 1009.2 |
| 20260503231017 | 56 | 0 | 8.0 | 20.0 | 0.00 | 0.00 | 0.00 | 52 | 1009.3 |
| 20260503230517 | 56 | 0 | 9.0 | 25.0 | 0.00 | 0.00 | 0.00 | 51 | 1009.1 |
| 20260503230017 | 56 | 0 | 9.0 | 25.0 | 0.00 | 0.00 | 0.00 | 51 | 1009.0 |
| 20260503225517 | 56 | 0 | 7.0 | 17.0 | 0.00 | 0.00 | 0.00 | 50 | 1009.0 |
| 20260503225017 | 56 | 0 | 7.0 | 18.0 | 0.00 | 0.00 | 0.00 | 50 | 1008.9 |
| 20260503224517 | 56 | 0 | 8.0 | 17.0 | 0.00 | 0.00 | 0.00 | 49 | 1008.9 |
| 20260503224037 | 57 | 0 | 7.0 | 17.0 | 0.00 | 0.00 | 0.00 | 49 | 1008.7 |
| 20260503223537 | 57 | 0 | 6.0 | 17.0 | 0.00 | 0.00 | 0.00 | 48 | 1009.0 |
| 20260503223017 | 57 | 0 | 6.0 | 14.0 | 0.00 | 0.00 | 0.00 | 48 | 1008.9 |
| 20260503222517 | 57 | 0 | 5.0 | 14.0 | 0.00 | 0.00 | 0.00 | 47 | 1008.9 |
| 20260503222017 | 57 | 0 | 5.0 | 17.0 | 0.00 | 0.00 | 0.00 | 47 | 1008.7 |
| 20260503221517 | 57 | 0 | 8.0 | 19.0 | 0.00 | 0.00 | 0.00 | 46 | 1008.8 |
| 20260503221017 | 57 | 0 | 8.0 | 21.0 | 0.00 | 0.00 | 0.00 | 47 | 1008.8 |
| 20260503220517 | 57 | 0 | 7.0 | 17.0 | 0.00 | 0.00 | 0.00 | 47 | 1008.9 |
| 20260503220016 | 57 | 0 | 5.0 | 12.0 | 0.00 | 0.00 | 0.00 | 47 | 1009.0 |
| 20260503215517 | 57 | 0 | 6.0 | 12.0 | 0.00 | 0.00 | 0.00 | 47 | 1009.0 |
| 20260503215017 | 57 | 0 | 8.0 | 16.0 | 0.00 | 0.00 | 0.00 | 47 | 1009.0 |
| 20260503214517 | 57 | 0 | 6.0 | 12.0 | 0.00 | 0.00 | 0.00 | 46 | 1009.0 |
| 20260503214037 | 57 | 0 | 8.0 | 17.0 | 0.00 | 0.00 | 0.00 | 47 | 1009.1 |
| 20260503213517 | 58 | 0 | 5.0 | 12.0 | 0.00 | 0.00 | 0.00 | 46 | 1009.1 |
| 20260503213017 | 58 | 0 | 7.0 | 16.0 | 0.00 | 0.00 | 0.00 | 46 | 1008.9 |
| 20260503212517 | 58 | 0 | 8.0 | 17.0 | 0.00 | 0.00 | 0.00 | 45 | 1008.9 |
| 20260503212017 | 59 | 0 | 6.0 | 12.0 | 0.00 | 0.00 | 0.00 | 45 | 1009.0 |
| 20260503211517 | 59 | 0 | 5.0 | 11.0 | 0.00 | 0.00 | 0.00 | 46 | 1008.8 |
| 20260503211017 | 59 | 0 | 6.0 | 14.0 | 0.00 | 0.00 | 0.00 | 44 | 1008.9 |
| 20260503210517 | 59 | 0 | 6.0 | 14.0 | 0.00 | 0.00 | 0.00 | 44 | 1009.0 |
| 20260503210017 | 60 | 0 | 5.0 | 16.0 | 0.00 | 0.00 | 0.00 | 43 | 1008.9 |
| 20260503205517 | 60 | 0 | 6.0 | 17.0 | 0.00 | 0.00 | 0.00 | 43 | 1008.9 |
| 20260503205037 | 60 | 0 | 6.0 | 11.0 | 0.00 | 0.00 | 0.00 | 43 | 1008.9 |
| 20260503204517 | 60 | 0 | 6.0 | 12.0 | 0.00 | 0.00 | 0.00 | 43 | 1009.0 |
| 20260503204017 | 59 | 0 | 6.0 | 11.0 | 0.00 | 0.00 | 0.00 | 42 | 1009.0 |
| 20260503203537 | 59 | 0 | 7.0 | 14.0 | 0.00 | 0.00 | 0.00 | 43 | 1009.1 |
| 20260503203017 | 59 | 0 | 7.0 | 17.0 | 0.00 | 0.00 | 0.00 | 43 | 1009.1 |
| 20260503202517 | 59 | 0 | 7.0 | 14.0 | 0.00 | 0.00 | 0.00 | 42 | 1009.1 |
| 20260503202037 | 59 | 0 | 5.0 | 14.0 | 0.00 | 0.00 | 0.00 | 42 | 1009.2 |
| 20260503201517 | 59 | 0 | 6.0 | 16.0 | 0.00 | 0.00 | 0.00 | 42 | 1009.4 |
| 20260503201017 | 59 | 0 | 7.0 | 14.0 | 0.00 | 0.00 | 0.00 | 42 | 1009.4 |
| 20260503200516 | 59 | 0 | 7.0 | 15.0 | 0.00 | 0.00 | 0.00 | 42 | 1009.6 |
| 20260503200016 | 59 | 0 | 7.0 | 18.0 | 0.00 | 0.00 | 0.00 | 43 | 1009.6 |
| 20260503195517 | 58 | 0 | 9.0 | 18.0 | 0.00 | 0.00 | 0.00 | 41 | 1009.6 |
| 20260503195017 | 58 | 0 | 8.0 | 15.0 | 0.00 | 0.00 | 0.00 | 42 | 1009.9 |
| 20260503194517 | 57 | 0 | 8.0 | 15.0 | 0.00 | 0.00 | 0.00 | 43 | 1010.0 |
| 20260503194037 | 57 | 0 | 6.0 | 15.0 | 0.00 | 0.00 | 0.00 | 44 | 1010.1 |
| 20260503193517 | 57 | 0 | 8.0 | 19.0 | 0.00 | 0.00 | 0.00 | 41 | 1010.2 |
| 20260503193017 | 57 | 0 | 7.0 | 21.0 | 0.00 | 0.00 | 0.00 | 44 | 1010.3 |
| 20260503192517 | 57 | 0 | 8.0 | 15.0 | 0.00 | 0.00 | 0.00 | 44 | 1010.4 |
| 20260503192017 | 57 | 0 | 6.0 | 14.0 | 0.00 | 0.00 | 0.00 | 43 | 1010.5 |
| 20260503191517 | 57 | 0 | 6.0 | 14.0 | 0.00 | 0.00 | 0.00 | 41 | 1010.5 |
| 20260503191017 | 58 | 0 | 7.0 | 17.0 | 0.00 | 0.00 | 0.00 | 43 | 1010.5 |
| 20260503190517 | 57 | 0 | 6.0 | 11.0 | 0.00 | 0.00 | 0.00 | 42 | 1010.7 |
| 20260503190016 | 57 | 0 | 6.0 | 16.0 | 0.00 | 0.00 | 0.00 | 42 | 1010.8 |
| 20260503185537 | 57 | 0 | 6.0 | 12.0 | 0.00 | 0.00 | 0.00 | 43 | 1010.9 |
| 20260503185017 | 57 | 0 | 8.0 | 18.0 | 0.00 | 0.00 | 0.00 | 41 | 1011.1 |
| 20260503184517 | 57 | 0 | 9.0 | 21.0 | 0.00 | 0.00 | 0.00 | 41 | 1011.1 |
| 20260503184037 | 57 | 0 | 9.0 | 24.0 | 0.00 | 0.00 | 0.00 | 41 | 1011.2 |
| 20260503183516 | 57 | 0 | 5.0 | 12.0 | 0.00 | 0.00 | 0.00 | 43 | 1011.2 |
| 20260503183037 | 57 | 0 | 8.0 | 17.0 | 0.00 | 0.00 | 0.00 | 41 | 1011.2 |
| 20260503182517 | 57 | 0 | 9.0 | 18.0 | 0.00 | 0.00 | 0.00 | 40 | 1011.3 |
| 20260503182056 | 57 | 0 | 7.0 | 14.0 | 0.00 | 0.00 | 0.00 | 43 | 1011.3 |
| 20260503181517 | 56 | 0 | 6.0 | 14.0 | 0.00 | 0.00 | 0.00 | 43 | 1011.6 |
| 20260503181017 | 56 | 0 | 7.0 | 14.0 | 0.00 | 0.00 | 0.00 | 43 | 1011.6 |
| 20260503180517 | 57 | 0 | 6.0 | 13.0 | 0.00 | 0.00 | 0.00 | 41 | 1011.7 |
| 20260503180036 | 57 | 0 | 6.0 | 14.0 | 0.00 | 0.00 | 0.00 | 42 | 1011.7 |
| 20260503175517 | 57 | 0 | 7.0 | 17.0 | 0.00 | 0.00 | 0.00 | 44 | 1011.7 |
| 20260503175016 | 57 | 0 | 6.0 | 14.0 | 0.00 | 0.00 | 0.00 | 45 | 1011.7 |
| 20260503174516 | 57 | 0 | 5.0 | 11.0 | 0.00 | 0.00 | 0.00 | 44 | 1011.6 |
| 20260503174016 | 57 | 0 | 8.0 | 16.0 | 0.00 | 0.00 | 0.00 | 46 | 1011.8 |
| 20260503173516 | 56 | 0 | 7.0 | 13.0 | 0.00 | 0.00 | 0.00 | 47 | 1011.8 |
| 20260503173016 | 56 | 0 | 7.0 | 13.0 | 0.00 | 0.00 | 0.00 | 44 | 1011.9 |
| 20260503172536 | 56 | 0 | 7.0 | 18.0 | 0.00 | 0.00 | 0.00 | 48 | 1011.9 |
| 20260503172036 | 56 | 0 | 5.0 | 14.0 | 0.00 | 0.00 | 0.00 | 47 | 1012.0 |
| 20260503171516 | 56 | 0 | 5.0 | 12.0 | 0.00 | 0.00 | 0.00 | 48 | 1012.0 |
| 20260503171016 | 56 | 0 | 7.0 | 16.0 | 0.00 | 0.00 | 0.00 | 47 | 1012.0 |
| 20260503170536 | 56 | 0 | 4.0 | 9.0 | 0.00 | 0.00 | 0.00 | 48 | 1012.0 |
| 20260503150516 | 53 | 0 | 6.0 | 13.0 | 0.00 | 0.00 | 0.00 | 51 | 1013.1 |
| 20260503131036 | 47 | 0 | 4.0 | 11.0 | 0.00 | 0.00 | 0.00 | 63 | 1014.1 |
| 20260503130556 | 46 | 0 | 5.0 | 9.0 | 0.00 | 0.00 | 0.00 | 62 | 1014.2 |
| 20260503110516 | 34 | 0 | 2.0 | 4.0 | 0.00 | 0.01 | 0.00 | 89 | 1013.8 |
| 20260503081557 | 34 | 0.0 | 0.0 | 0.00 | 0.01 | 0.00 | 82 | 1013.4 | |
| 20260503081018 | 35 | 0.0 | 0.0 | 0.00 | 0.01 | 0.00 | 82 | 1013.6 | |
| 20260503080518 | 35 | 0.0 | 0.0 | 0.00 | 0.01 | 0.00 | 81 | 1013.5 | |
| 20260503072517 | 36 | 0.0 | 0.0 | 0.00 | 0.01 | 0.00 | 80 | 1013.6 | |
| 20260503072037 | 36 | 0.0 | 0.0 | 0.00 | 0.01 | 0.00 | 80 | 1013.6 | |
| 20260503071518 | 37 | 0.0 | 3.0 | 0.00 | 0.01 | 0.00 | 79 | 1013.6 | |
| 20260503071017 | 37 | 0.0 | 1.0 | 0.00 | 0.01 | 0.00 | 79 | 1013.6 | |
| 20260503070537 | 37 | 0.0 | 1.0 | 0.00 | 0.01 | 0.00 | 79 | 1013.6 | |
| 20260503055017 | 40 | 0 | 2.0 | 4.0 | 0.00 | 0.01 | 0.00 | 77 | 1013.9 |
| 20260503054517 | 40 | 0 | 2.0 | 5.0 | 0.00 | 0.01 | 0.00 | 77 | 1013.9 |
| 20260503054017 | 40 | 0 | 1.0 | 3.0 | 0.00 | 0.01 | 0.00 | 77 | 1014.1 |
| 20260503053517 | 40 | 0 | 2.0 | 5.0 | 0.00 | 0.01 | 0.00 | 77 | 1014.1 |
| 20260503053017 | 40 | 0 | 2.0 | 4.0 | 0.00 | 0.01 | 0.00 | 77 | 1014.2 |
| 20260503052517 | 40 | 0 | 1.0 | 3.0 | 0.00 | 0.01 | 0.00 | 77 | 1014.3 |
| 20260503052037 | 40 | 0 | 1.0 | 3.0 | 0.00 | 0.01 | 0.00 | 77 | 1014.2 |
| 20260503051517 | 40 | 0 | 2.0 | 4.0 | 0.00 | 0.01 | 0.00 | 77 | 1014.4 |
| 20260503051017 | 40 | 0 | 3.0 | 5.0 | 0.00 | 0.01 | 0.00 | 76 | 1014.5 |
| 20260503050517 | 41 | 0.0 | 3.0 | 0.00 | 0.01 | 0.00 | 76 | 1014.5 | |
| 20260503050017 | 41 | 0.0 | 0.0 | 0.00 | 0.01 | 0.00 | 76 | 1014.6 |